This is the latest recevied weather packets stored in our database for station/object LA5NNA. If no packets are shown the sender has not sent any weather packets the latest 10 day(s).
| Time | Temp. | Humidity | Pressure | Rain* | Wind** | Luminosity | Snow |
|---|---|---|---|---|---|---|---|
| 1778030709 | 5° C | 64% | 1012.6 hPa | 0 mm | - | 0 W/m² | - |
| 1778030108 | 5° C | 64% | 1012.6 hPa | 0 mm | - | 0 W/m² | - |
| 1778029808 | 5° C | 64% | 1012.5 hPa | 0 mm | - | 0 W/m² | - |
| 1778029212 | 5° C | 64% | 1012.6 hPa | 0 mm | - | 0 W/m² | - |
| 1778027708 | 5° C | 63% | 1012.6 hPa | 0 mm | - | 0 W/m² | - |
| 1778025308 | 5° C | 62% | 1012.4 hPa | 0 mm | - | 0 W/m² | - |
| 1778025008 | 5° C | 62% | 1012.4 hPa | 0 mm | - | 0 W/m² | - |
| 1778024408 | 5° C | 62% | 1012.4 hPa | 0 mm | - | 0 W/m² | - |
| 1778023812 | 5° C | 62% | 1012.4 hPa | 0 mm | - | 0 W/m² | - |
| 1778021408 | 5.56° C | 62% | 1012.4 hPa | 0 mm | - | 0 W/m² | - |
| 1778020807 | 5.56° C | 61% | 1012.4 hPa | 0 mm | - | 0 W/m² | - |
| 1778020508 | 5.56° C | 61% | 1012.4 hPa | 0 mm | - | 0 W/m² | - |
| 1778019007 | 5.56° C | 61% | 1012.5 hPa | 0 mm | - | 0 W/m² | - |
| 1778018412 | 5.56° C | 60% | 1012.3 hPa | 0 mm | - | 0 W/m² | - |
| 1778016611 | 6.11° C | 60% | 1012.4 hPa | 0 mm | - | 0 W/m² | - |
| 1778013908 | 6.11° C | 63% | 1012.2 hPa | 0 mm | - | 0 W/m² | - |
| 1778013307 | 6.67° C | 63% | 1012 hPa | 0 mm | - | 0 W/m² | - |
| 1778010907 | 6.67° C | 65% | 1011.6 hPa | 0 mm | - | 0 W/m² | - |
| 1778008807 | 6.67° C | 64% | 1011.6 hPa | 0 mm | - | 0 W/m² | - |
| 1778005508 | 7.78° C | 63% | 1011.2 hPa | 0 mm | - | 0 W/m² | - |
| 1778003407 | 7.78° C | 66% | 1011.3 hPa | 0 mm | - | 2 W/m² | - |
| 1778002507 | 7.78° C | 66% | 1011.2 hPa | 0 mm | - | 2 W/m² | - |
| 1777999807 | 8.33° C | 63% | 1011.1 hPa | 0 mm | - | 0 W/m² | - |
| 1777998611 | 8.89° C | 63% | 1011.2 hPa | 0 mm | - | 2 W/m² | - |
| 1777996507 | 8.89° C | 64% | 1011.2 hPa | 0 mm | - | 0 W/m² | - |
* Rain latest hour (hover to see other rain measurements)
** Current wind speed in m/s (hover to see current wind gust speed)